GFSNE_con_mlcape_114.txt.gz
CAPE
1291 1088 823 601 467 322 272 257 260 104 53 88 59 1 0 54 35 1 0 0 0 0 0 0 3 0 0 5 8 3 3 1 1 4 3 2 0 0
894 388 545 244 145 489 322 169 112 81 31 35 17 27 0 0 2 2 0 0 0 0 0 0 2 6 5 11 2 2 5 8 2 0 0 0 0 0
1069 803 436 0 18 360 149 153 102 75 44 32 39 49 44 4 0 2 8 0 0 0 0 0 0 1 9 10 4 4 4 7 9 10 11 13 22 14
1093 1006 650 323 378 322 231 204 124 139 60 39 25 25 28 15 0 1 1 1 0 0 0 0 0 0 5 6 0 5 6 9 12 23 32 23 42 39
1023 779 628 476 408 342 231 168 128 99 75 53 35 27 47 41 19 1 2 0 0 0 0 0 0 0 0 2 24 22 8 12 9 19 16 9 3 0
744 533 372 314 278 189 78 35 27 32 51 45 13 16 7 13 26 0 0 2 1 2 1 0 0 0 0 0 0 7 0 0 0 0 0 0 0 0
3 0 1 1 0 0 0 0 0 0 0 2 2 1 5 2 4 1 0 2 6 8 4 5 2 1 3 2 0 0 0 0 0 0 0 1 1 3
0 5 7 12 6 4 2 0 0 0 0 0 2 3 2 3 0 0 0 2 1 2 5 5 4 7 7 2 6 6 6 7 8 11 8 8 8 6
10 10 10 10 6 6 8 7 10 11 11 7 1 0 0 1 1 1 1 1 0 5 2 8 2 4 3 3 3 5 5 5 6 7 7 7 5 5
8 5 9 8 6 3 6 6 11 12 8 9 11 13 10 7 2 1 2 5 3 0 0 2 1 3 2 2 3 4 4 4 4 5 6 4 5 3
4 3 3 5 2 6 3 8 10 9 6 7 7 9 9 4 1 0 0 1 3 2 0 2 3 2 2 2 2 3 4 5 5 4 4 3 3 0
2 1 2 3 2 2 4 3 5 8 3 0 0 1 5 6 7 2 2 3 1 2 1 0 1 0 0 0 1 1 2 2 2 2 3 2 1 0
1 1 1 1 2 4 3 6 5 2 3 3 3 3 4 6 6 4 4 0 0 1 1 0 1 1 1 0 0 0 0 0 0 1 1 0 0 0
1 0 0 1 1 1 2 3 2 1 0 2 2 5 4 4 3 3 3 3 2 3 0 0 0 0 1 1 0 0 0 0 0 0 0 0 0 0
0 1 1 1 0 0 1 0 0 0 1 0 1 0 0 0 0 0 1 1 1 2 0 0 0 1 0 0 0 0 0 0 0 0 0 0 0 0
0 0 0 0 0 1 0 0 0 0 0 0 0 0 0 0 0 0 0 0 0 0 0 0 0 1 1 1 0 0 0 0 0 0 0 0 0 0
0 0 0 0 0 0 0 0 0 0 0 0 0 0 0 0 0 0 0 1 0 0 0 0 0 0 0 0 0 0 0 0 0 0 0 0 0 0
0 0 0 0 0 0 0 0 0 0 0 0 0 0 0 0 0 0 0 0 0 0 0 0 0 0 0 0 0 0 0 0 0 0 0 0 0 0
0 0 0 0 0 0 0 0 0 0 0 0 0 0 0 0 0 0 0 0 0 0 0 0 0 0 0 0 0 0 0 0 0 0 0 0 0 0
0 0 0 0 0 0 0 0 0 0 0 0 0 0 0 0 0 0 0 0 0 0 0 0 0 0 0 0 0 0 0 0 0 0 0 0 0 0
0 0 0 0 0 0 0 0 0 0 0 0 0 0 0 0 0 0 0 0 0 0 0 0 0 0 0 0 0 0 0 0 0 0 0 0 0 0
0 0 0 0 0 0 0 0 0 0 0 0 0 0 0 0 0 0 0 0 0 0 0 0 0 0 0 0 0 0 0 0 0 0 0 0 0 0
0 0 0 0 0 0 0 0 0 0 0 0 0 0 0 0 0 0 0 0 0 0 0 0 0 0 0 0 0 0 0 0 0 0 0 0 0 0

GFSNE_con_mlcape_117.txt.gz
CAPE
1260 1012 808 640 641 513 317 207 136 59 101 100 125 136 109 88 112 54 18 0 0 0 0 0 0 0 0 0 0 0 0 0 1 5 10 10 10 10
1302 1157 872 583 387 391 273 169 116 79 77 93 91 80 51 30 34 16 0 0 0 0 0 0 0 0 0 0 0 0 3 4 1 0 1 4 6 2
1133 1116 893 515 430 400 312 80 70 115 112 94 45 49 28 1 0 0 0 0 0 0 0 0 0 0 0 0 0 1 9 2 1 0 1 1 1 0
1143 1033 746 494 466 217 68 0 0 31 132 98 33 6 18 10 0 0 0 0 0 0 0 0 0 0 0 0 0 3 2 0 1 3 10 9 6 8
1073 979 921 546 290 120 14 80 26 95 73 35 34 37 16 12 0 1 1 0 0 0 0 0 0 0 0 0 0 7 13 4 2 7 8 6 19 35
855 867 842 550 182 48 62 94 142 137 93 108 77 59 52 4 11 1 0 0 0 0 0 0 0 0 0 0 0 0 0 13 26 13 14 8 12 29
168 57 75 71 61 119 52 47 56 37 23 42 32 47 20 4 2 0 0 0 2 3 1 4 3 0 1 0 0 0 0 0 0 4 7 2 0 0
0 9 13 7 3 1 0 0 0 0 0 0 0 1 0 1 1 0 0 0 0 3 3 4 5 4 5 1 0 0 0 0 0 0 0 0 0 1
9 10 12 18 13 11 16 11 5 1 1 0 0 0 0 1 3 0 0 0 0 6 0 3 2 4 3 2 3 3 3 3 4 5 5 6 8 8
4 5 7 11 9 12 15 13 17 9 8 7 7 15 11 9 6 2 1 3 7 3 0 2 2 4 2 1 3 6 11 9 9 10 11 8 6 5
3 3 3 2 2 5 10 16 15 15 6 11 10 10 9 8 1 4 0 0 2 2 2 1 3 3 2 2 1 3 2 1 2 3 5 5 6 5
2 0 2 5 3 3 1 5 5 5 4 2 2 2 4 5 6 1 2 1 0 3 1 0 3 0 1 0 0 0 2 3 4 5 4 5 4 3
2 2 0 3 4 3 3 2 4 2 5 5 3 4 4 4 4 3 3 0 0 1 1 0 2 2 1 0 0 0 1 1 2 3 3 2 0 1
0 0 0 1 2 1 2 2 2 1 0 3 5 5 4 5 3 3 3 2 3 2 1 0 0 0 1 1 0 0 0 0 0 0 1 2 1 0
0 1 1 1 0 0 1 0 1 1 2 1 1 1 1 1 0 1 1 2 2 0 0 0 0 0 0 0 0 0 0 0 0 0 0 0 1 0
0 0 0 1 0 0 0 0 0 0 0 0 0 0 0 0 0 0 0 0 0 0 0 0 0 1 1 1 1 0 0 1 0 0 0 0 0 0
0 0 0 0 0 0 0 0 0 0 0 0 0 0 0 0 0 0 0 0 0 0 0 1 0 0 0 0 0 0 0 0 0 0 0 0 0 0
0 0 0 0 0 0 0 0 0 0 0 0 0 0 0 0 0 0 0 0 0 0 0 0 0 0 0 0 0 0 0 0 0 0 0 0 0 0
0 0 0 0 0 0 0 0 0 0 0 0 0 0 0 0 0 0 0 0 0 0 0 0 0 0 0 0 0 0 0 0 0 0 0 0 0 0
0 0 0 0 0 0 0 0 0 0 0 0 0 0 0 0 0 0 0 0 0 0 0 0 0 0 0 0 0 0 0 0 0 0 0 0 0 0
0 0 0 0 0 0 0 0 0 0 0 0 0 0 0 0 0 0 0 0 0 0 0 0 0 0 0 0 0 0 0 0 0 0 0 0 0 0
0 0 0 0 0 0 0 0 0 0 0 0 0 0 0 0 0 0 0 0 0 0 0 0 0 0 0 0 0 0 0 0 0 0 0 0 0 0
0 0 0 0 0 0 0 0 0 0 0 0 0 0 0 0 0 0 0 0 0 0 0 0 0 0 0 0 0 0 0 0 0 0 0 0 0 0

GFSNE_con_mlcape_123.txt.gz
CAPE
0 132 97 83 107 78 87 62 96 46 6 40 48 49 75 72 43 3 2 0 0 0 0 0 0 0 5 15 22 16 2 7 0 0 6 13 21 13
0 9 182 254 223 224 184 119 132 187 24 35 48 24 54 74 50 7 0 0 0 0 0 0 0 0 0 0 3 0 0 0 0 0 0 8 13 12
1 1 37 337 292 366 277 216 198 226 189 147 4 0 23 49 49 13 6 3 0 0 0 0 0 0 0 0 0 0 0 0 0 0 0 0 10 11
3 1 1 324 419 412 390 257 256 224 259 117 18 0 6 15 32 16 3 9 5 0 0 0 0 0 0 0 0 0 0 0 0 0 0 0 0 6
4 2 1 106 528 412 420 371 342 260 146 190 105 0 0 0 0 0 4 6 2 0 0 0 0 0 0 0 0 0 0 0 0 0 0 0 0 0
2 3 3 34 514 612 415 436 435 365 193 187 49 0 0 0 2 0 0 1 0 0 0 0 0 0 2 2 2 0 0 0 0 0 0 0 0 0
1 0 0 0 93 554 647 552 502 272 175 104 54 1 0 2 1 0 0 0 0 0 0 1 0 1 2 2 4 6 3 0 0 0 0 0 0 0
1 5 6 1 1 0 31 152 173 134 93 44 57 8 0 3 7 2 0 0 0 5 0 1 5 5 6 6 10 3 0 1 0 0 0 0 0 0
7 8 11 6 10 11 20 21 20 8 2 1 8 12 0 0 0 0 0 0 0 3 0 0 5 3 7 4 4 0 0 1 1 0 0 0 0 0
6 6 7 4 2 4 11 15 22 24 21 16 11 7 12 6 1 0 0 2 7 8 2 0 13 7 4 3 6 1 0 0 0 1 0 0 0 0
1 1 3 6 6 0 0 6 8 11 3 5 9 9 10 10 7 4 0 0 0 2 2 1 10 8 3 3 2 5 4 2 2 3 1 0 1 5
2 0 2 2 3 3 0 2 1 2 0 0 0 0 2 2 1 1 5 0 0 1 4 0 8 2 4 3 1 2 3 3 7 6 6 5 10 8
1 1 0 1 2 3 2 3 4 3 4 2 3 1 1 1 0 1 2 1 0 1 3 0 7 5 2 8 1 1 1 1 3 4 5 5 3 3
0 0 0 2 3 3 2 2 2 2 3 2 1 2 2 1 1 1 2 2 1 3 2 0 1 0 0 7 4 1 1 1 1 2 3 5 4 3
0 0 0 0 1 1 2 2 1 1 1 1 0 0 1 0 0 0 0 0 1 1 0 0 0 0 0 0 6 1 0 0 0 0 0 1 1 1
0 0 0 0 0 0 0 0 0 0 0 0 0 0 0 0 0 1 1 0 0 0 0 0 1 0 0 0 0 4 0 0 0 0 0 0 0 0
0 0 0 0 0 0 0 0 0 0 0 0 0 0 0 0 0 0 0 0 0 0 0 1 0 0 0 1 1 1 0 0 0 0 0 0 0 0
0 0 0 0 0 0 0 0 0 0 0 0 0 0 0 0 0 0 0 0 0 0 0 0 0 0 0 0 0 0 0 0 0 0 0 0 0 0
0 0 0 0 0 0 0 0 0 0 0 0 0 0 0 0 0 0 0 0 0 0 0 0 0 0 0 0 0 0 0 0 0 0 0 0 0 0
0 0 0 0 0 0 0 0 0 0 0 0 0 0 0 0 0 0 0 0 0 0 0 0 0 0 0 0 0 0 0 0 0 0 0 0 0 0
0 0 0 0 0 0 0 0 0 0 0 0 0 0 0 0 0 0 0 0 0 0 0 0 0 0 0 0 0 0 0 0 0 0 0 0 0 0
0 0 0 0 0 0 0 0 0 0 0 0 0 0 0 0 0 0 0 0 0 0 0 0 0 0 0 0 0 0 0 0 0 0 0 0 0 0
0 0 0 0 0 0 0 0 0 0 0 0 0 0 0 0 0 0 0 0 0 0 0 0 0 0 0 0 0 0 0 0 0 0 0 0 0 0

GFSNE_con_mlcape_126.txt.gz
CAPE
3 0 0 14 2 0 3 0 0 0 0 0 0 14 31 31 43 20 28 5 0 0 0 0 0 0 0 0 0 13 29 23 3 8 0 4 8 9
2 3 1 0 101 30 12 2 0 0 0 0 0 19 47 33 65 22 9 0 0 0 0 0 0 0 0 0 0 2 0 2 5 0 0 1 5 6
2 3 3 2 0 111 114 35 19 14 0 26 11 8 61 42 44 11 2 0 0 0 0 0 0 0 0 0 0 0 0 0 3 0 0 0 0 4
3 3 3 0 0 7 169 166 128 103 101 102 92 15 43 22 64 46 20 2 1 0 0 0 0 0 0 0 0 0 0 0 0 0 0 0 0 0
2 4 2 1 1 0 26 59 260 239 179 175 161 0 0 0 1 12 3 3 1 0 0 0 0 0 0 0 0 0 0 0 0 0 0 0 0 0
5 3 3 3 4 2 14 10 226 335 238 194 191 6 1 0 1 0 1 1 0 0 0 0 0 1 1 2 1 0 1 1 0 0 0 0 0 0
4 2 1 0 1 0 6 32 20 323 266 234 271 124 15 0 1 0 3 0 0 0 1 1 2 1 1 1 2 2 2 2 1 0 0 0 0 0
5 4 3 2 1 1 0 0 0 319 244 251 346 135 61 8 1 1 0 0 0 3 0 1 4 3 9 5 8 1 0 1 0 1 1 0 0 0
4 4 6 4 2 4 9 8 18 18 14 6 223 143 96 0 0 0 0 0 0 1 0 0 6 5 10 8 5 2 0 0 0 0 2 0 0 0
0 1 2 4 1 3 1 4 12 14 11 14 21 21 20 12 5 1 0 0 2 6 1 0 11 9 9 7 7 5 0 0 0 0 0 0 0 0
0 0 0 3 3 4 5 6 1 4 6 4 3 4 5 2 2 3 0 0 0 0 3 1 15 9 8 7 4 7 2 0 0 0 0 1 0 0
0 0 1 2 3 4 3 5 4 4 2 3 1 0 3 0 0 1 2 1 1 0 5 0 10 4 3 5 2 1 4 6 5 5 7 3 1 0
2 2 0 2 3 3 2 2 3 1 2 4 4 1 2 4 3 1 0 0 1 4 2 1 5 8 4 12 4 1 1 2 3 3 6 6 5 4
1 0 0 0 1 1 2 3 2 0 1 2 2 1 3 2 2 1 1 1 2 0 0 0 2 2 3 12 7 2 1 1 1 3 4 5 6 5
0 0 0 0 0 0 0 0 0 0 1 1 1 1 1 1 1 1 0 0 1 2 1 1 0 1 0 3 6 3 1 2 1 2 2 3 3 4
0 0 0 0 0 0 0 0 0 0 0 0 0 0 0 0 1 1 2 1 0 0 1 0 0 0 0 1 1 3 1 1 0 0 2 2 2 2
0 0 0 0 0 0 0 0 0 0 0 0 0 0 0 0 0 0 0 0 0 0 0 1 1 0 0 1 0 0 0 0 0 0 0 0 0 1
0 0 0 0 0 0 0 0 0 0 0 0 0 0 0 0 0 0 0 0 0 0 0 0 0 0 0 0 0 0 0 0 0 0 0 0 0 0
0 0 0 0 0 0 0 0 0 0 0 0 0 0 0 0 0 0 0 0 0 0 0 0 0 0 0 0 0 0 0 0 0 0 0 0 0 0
0 0 0 0 0 0 0 0 0 0 0 0 0 0 0 0 0 0 0 0 0 0 0 0 0 0 0 0 0 0 0 0 0 0 0 0 0 0
0 0 0 0 0 0 0 0 0 0 0 0 0 0 0 0 0 0 0 0 0 0 0 0 0 0 0 0 0 0 0 1 0 0 0 0 0 0
0 0 0 0 0 0 0 0 0 0 0 0 0 0 0 0 0 0 0 0 0 0 0 0 0 0 0 0 0 0 0 0 0 0 0 0 0 0
0 0 0 0 0 0 0 0 0 0 0 0 0 0 0 0 0 0 0 0 0 0 0 0 0 0 0 0 0 0 0 0 0 0 0 0 0 0

GFSNE_con_mlcape_132.txt.gz
CAPE
2 4 4 1 3 0 2 1 50 28 10 104 174 43 0 0 0 34 98 67 6 0 0 0 15 21 8 0 0 0 0 0 0 3 19 35 60 25
3 2 3 6 3 2 1 2 0 42 10 11 61 99 67 19 25 84 120 84 10 0 0 0 0 0 0 0 0 0 0 0 0 0 0 3 17 2
6 4 4 5 4 3 1 8 4 8 13 7 23 143 295 96 102 110 126 150 96 0 0 0 0 0 0 0 0 0 0 0 0 0 0 1 1 2
5 4 3 2 2 3 3 3 8 6 19 19 35 51 230 308 236 279 343 131 183 40 0 0 0 0 0 0 0 0 0 0 0 0 0 0 0 1
5 5 4 3 3 4 3 6 4 10 19 25 60 11 112 234 323 331 453 380 269 85 6 0 0 0 0 0 0 0 0 0 0 0 0 0 0 0
2 2 2 3 5 5 2 5 7 3 25 25 24 43 87 130 255 320 385 254 86 13 0 0 0 0 0 0 0 0 0 0 0 0 0 0 0 0
0 1 1 3 2 2 2 2 3 3 7 34 9 27 64 105 46 142 220 104 18 0 0 0 0 0 0 1 2 0 0 0 0 0 0 0 0 0
0 0 0 2 1 1 4 5 2 0 0 4 23 20 4 57 88 55 94 123 0 1 0 0 0 0 0 2 5 2 0 0 0 0 0 0 0 0
0 0 0 1 1 1 1 3 6 5 5 2 1 3 1 4 4 0 7 20 4 7 0 0 2 1 3 4 7 8 2 0 0 0 0 0 0 0
0 0 0 0 1 1 2 2 2 2 3 3 6 6 5 6 4 4 0 1 0 1 1 0 4 1 11 8 8 8 8 7 4 2 1 0 0 0
0 0 0 0 3 2 2 1 2 1 1 2 3 2 3 5 5 0 0 1 0 2 4 2 11 8 16 12 7 7 6 7 7 6 4 1 0 0
0 0 1 0 0 1 2 3 2 1 2 1 0 0 1 2 3 4 7 0 1 2 4 2 4 4 1 7 2 2 2 2 3 3 4 1 1 5
0 0 0 0 0 0 0 1 1 0 0 1 0 0 0 1 1 1 2 5 0 5 4 2 1 2 1 4 3 1 1 1 1 3 5 5 3 2
0 0 0 0 0 0 0 0 0 0 0 0 1 2 2 2 1 1 0 0 0 3 3 2 2 1 1 0 0 1 3 1 2 1 1 2 4 2
0 0 0 0 0 0 0 0 0 0 0 0 0 0 0 0 0 1 1 0 1 1 0 1 1 2 2 2 0 1 2 0 1 1 1 1 3 5
0 0 0 0 0 0 0 0 0 0 0 0 0 0 0 0 0 0 0 0 1 0 0 0 0 2 3 3 1 0 1 1 1 1 1 1 1 3
0 0 0 0 0 0 0 0 0 0 0 0 0 0 0 0 0 0 0 0 0 0 0 0 1 0 1 0 1 1 1 0 0 1 1 1 1 1
0 0 0 0 0 0 0 0 0 0 0 0 0 0 0 0 0 0 0 0 0 0 0 0 0 1 1 0 0 0 1 1 0 1 1 1 1 0
0 0 0 0 0 0 0 0 0 0 0 0 0 0 0 0 0 0 0 0 0 0 0 0 0 0 0 1 0 0 0 0 0 1 1 1 1 1
0 0 0 0 0 0 0 0 0 0 0 0 0 0 0 0 0 0 0 0 0 0 0 0 0 0 1 1 3 1 0 1 0 1 1 1 1 0
0 0 0 0 0 0 1 2 2 0 0 0 0 0 0 0 0 0 0 0 0 0 0 0 0 0 0 0 4 1 1 1 0 1 2 1 1 1
0 0 0 0 0 0 1 2 0 1 0 0 0 0 0 0 0 0 0 0 0 0 0 0 0 0 0 0 2 1 2 1 0 0 0 0 2 4
0 0 0 0 0 0 0 1 1 1 2 2 0 0 0 0 0 0 0 0 0 0 0 0 0 0 0 0 0 5 0 0 2 0 0 0 0 0

GFSNE_con_mlcape_135.txt.gz
CAPE
2 2 2 2 3 6 5 2 13 6 0 0 70 272 536 394 146 120 83 51 4 18 34 22 41 73 87 111 117 116 90 56 42 39 21 18 31 34
2 3 2 3 4 6 6 2 4 13 5 1 1 232 427 454 233 81 68 57 5 4 0 1 4 2 21 81 72 60 76 55 33 16 0 0 0 0
3 3 2 1 3 4 7 7 6 11 8 3 2 24 142 168 203 106 69 29 12 0 6 2 1 0 0 8 27 14 26 28 4 0 0 0 0 0
4 2 6 1 5 3 1 4 7 5 6 8 0 2 53 115 256 70 216 262 225 32 2 2 1 0 0 0 0 0 0 0 0 0 0 0 0 0
4 2 2 3 3 2 2 11 3 8 7 8 2 1 12 92 109 129 282 241 405 245 23 6 4 0 0 0 0 0 0 0 0 0 0 0 0 0
5 4 2 1 2 3 4 4 3 4 3 4 8 0 23 111 81 145 151 320 280 404 53 1 0 0 0 0 0 0 0 0 0 0 0 0 0 0
1 2 1 3 1 2 2 2 1 3 4 4 7 9 13 28 113 191 191 275 386 318 219 5 0 0 0 0 0 0 0 0 0 0 0 0 0 0
0 0 1 1 1 0 1 2 1 4 2 3 3 2 1 2 2 0 20 217 150 0 5 0 0 0 0 0 0 0 0 0 1 0 0 0 0 0
0 0 0 0 1 1 1 1 1 2 2 5 5 8 6 12 10 5 2 0 3 0 1 0 0 0 0 0 1 2 4 1 1 0 0 0 0 0
1 1 0 0 1 0 0 0 0 0 1 1 1 1 1 2 6 7 4 7 2 2 1 0 5 1 8 6 8 5 4 3 3 2 1 0 0 0
0 0 0 0 2 1 1 1 1 1 0 0 0 1 2 2 2 2 1 3 1 2 8 7 3 3 7 8 7 5 5 6 6 7 7 5 4 4
0 0 0 0 0 1 0 0 1 1 0 0 0 0 0 1 0 1 3 4 5 1 1 2 3 1 1 10 3 2 1 1 2 3 2 1 4 6
0 0 0 0 0 0 0 0 0 0 0 0 0 0 0 0 1 0 0 1 1 2 2 3 2 2 0 2 4 1 1 2 1 1 2 2 2 1
0 0 0 0 0 0 0 0 0 0 0 0 0 0 0 0 0 0 0 0 0 0 0 0 2 2 1 1 0 4 2 2 1 1 1 0 0 1
0 0 0 0 0 0 0 0 0 0 0 0 0 0 0 0 0 0 0 0 0 0 0 1 0 0 2 1 2 3 2 2 3 2 1 0 1 0
0 0 0 0 0 0 0 0 0 0 0 0 0 0 0 0 0 0 0 0 0 0 0 2 0 0 1 0 1 1 1 0 0 2 0 1 1 1
0 0 0 0 0 0 0 0 0 0 0 0 0 0 0 0 0 0 0 0 0 0 0 0 0 0 0 0 1 1 0 0 0 1 1 0 1 1
0 0 0 0 0 0 0 0 0 0 0 0 0 0 0 0 0 0 0 0 0 0 0 0 0 0 0 1 0 0 1 0 1 1 1 1 1 1
0 0 0 0 0 0 0 0 0 0 0 0 0 0 0 0 0 0 0 0 0 0 0 0 0 0 0 0 2 0 0 0 0 1 0 0 1 0
0 0 0 0 0 0 0 0 0 1 0 1 0 0 0 0 0 0 0 0 0 0 0 0 0 0 0 0 1 0 0 0 0 0 0 0 0 0
0 0 0 0 0 0 0 0 1 0 0 0 0 0 0 0 0 0 0 0 0 0 0 0 0 0 0 0 0 1 0 0 0 1 0 1 0 1
0 0 0 0 0 0 0 0 0 0 0 0 0 0 0 1 0 0 0 0 0 0 0 0 0 0 0 0 0 3 2 1 0 0 0 0 1 1
0 0 0 0 0 0 0 0 0 0 0 0 0 1 0 2 1 0 0 0 0 0 0 0 0 0 0 0 0 0 2 3 0 0 0 0 0 1

GFSNE_con_mlcape_141.txt.gz
CAPE
2 0 0 0 1 1 4 5 6 3 0 0 0 1 0 0 0 0 0 31 9 0 0 0 20 70 38 56 132 165 195 201 146 118 161 179 174 182
0 1 1 0 1 0 4 2 3 5 3 1 0 0 0 0 0 0 0 0 0 0 0 0 0 0 13 25 43 97 116 154 132 111 96 128 137 149
0 0 1 0 0 0 0 0 0 2 5 4 5 2 1 0 0 0 0 0 1 0 2 0 0 0 0 0 0 20 36 61 97 121 108 99 109 121
0 0 0 0 0 0 1 2 1 2 4 7 3 0 0 0 0 0 0 0 0 1 0 8 0 0 0 0 0 7 5 5 58 92 127 115 111 102
0 0 0 0 0 0 1 0 1 0 1 4 5 1 0 3 0 0 0 0 0 0 4 0 1 0 0 0 0 0 0 4 11 30 81 108 112 85
1 0 1 0 0 0 0 0 0 1 1 2 2 1 2 0 0 1 0 0 0 0 3 5 1 0 0 0 0 1 1 0 0 0 2 72 109 108
0 0 0 3 1 1 1 0 0 0 1 2 3 3 3 6 4 5 5 1 0 2 0 1 0 0 0 0 0 5 2 1 0 0 0 1 9 31
0 0 1 0 0 2 2 2 2 0 0 0 0 1 1 3 4 8 7 5 1 2 0 0 0 0 8 6 4 1 2 1 2 2 1 0 0 0
0 0 0 0 0 0 1 1 1 1 1 0 0 0 0 0 1 5 6 6 2 2 2 0 2 2 2 6 4 3 4 3 4 6 5 3 3 1
0 0 0 0 0 0 0 0 0 0 0 1 0 0 0 0 0 0 1 2 1 0 3 1 5 5 1 2 3 3 3 3 4 4 4 3 4 5
0 0 0 0 0 0 0 0 0 0 0 0 0 0 0 0 0 0 1 2 1 0 1 4 3 7 1 2 1 0 1 1 3 3 3 2 1 1
0 0 0 0 0 0 0 0 0 0 0 0 0 0 0 0 0 0 0 1 0 0 0 1 1 3 4 0 0 0 0 0 1 2 4 3 3 0
0 0 0 0 0 0 0 0 0 0 0 0 0 0 0 0 0 0 0 0 0 0 0 1 0 0 1 1 0 0 0 0 0 1 0 2 3 1
0 0 0 0 0 0 0 0 0 0 0 0 0 0 0 0 0 0 0 0 0 0 0 0 0 0 0 0 0 0 0 0 0 0 0 0 0 0
0 0 0 0 0 0 0 0 0 0 0 0 0 0 0 0 0 0 0 0 0 0 0 0 0 0 0 0 1 1 0 0 0 0 0 0 2 1
0 0 0 0 0 0 0 0 0 0 0 0 0 0 0 0 0 0 0 0 0 0 0 0 0 0 0 0 0 0 0 0 0 0 0 0 0 0
0 0 0 0 0 0 0 0 0 0 0 0 0 0 0 0 0 0 0 0 0 0 0 0 0 0 0 0 0 0 0 0 0 0 0 0 0 0
0 0 0 0 0 0 0 0 0 0 0 0 0 0 0 0 0 0 0 0 0 0 0 0 0 0 0 0 0 0 0 0 0 0 0 0 0 0
0 0 0 0 0 0 0 0 0 0 0 0 0 0 0 0 0 0 0 0 0 0 0 0 0 0 0 0 0 0 0 0 0 0 0 0 0 0
0 0 0 0 0 0 0 0 0 0 0 0 0 0 0 0 0 0 0 0 0 0 0 0 0 0 0 0 0 0 0 0 0 0 0 0 0 0
0 0 0 0 0 0 0 0 0 0 0 0 0 0 0 0 0 0 0 0 0 0 0 0 0 0 0 0 0 0 0 0 0 0 0 0 0 0
0 0 0 0 0 0 0 0 0 0 0 0 0 0 0 0 0 0 0 0 0 0 0 0 0 0 0 0 0 0 0 0 0 0 0 0 0 0
0 0 0 0 0 0 0 0 0 0 0 0 0 0 0 0 0 0 0 0 0 0 0 0 0 0 0 0 0 0 0 0 0 0 0 0 0 1